Baltimore,Washington International Thurgood Marshal Airport Baltimore US
ICAO: KBWI
IATA: BWI
Category: Large
Scheduled Services: Yes

Elevation: 146 ft
TransAlt. 18000 ft.

Airport Communications:
POTOMAC APP:119
ATIS:115.1
CLNC DEL:118.05
POTOMAC DEP:126.75
GND:121.9
LEESBURG RDO:122.2
TWR:119.4
UNICOM:122.95

KBWI Zoom In..

If you have problems with the map follow the link
https://www.worldairports.se/pages/airport.php?
ICAO=KBWI

Runways:

(A) RW 04 length 6000 ft width 150 ft
---- / hdg 44

(B) RW 10 length 10502 ft width 150 ft
ILS 109.70 / hdg 105

(C) RW 15L length 5000 ft width 100 ft
ILS 111.95 / hdg 155

(D) RW 15R length 9501 ft width 150 ft
ILS 111.70 / hdg 155

(E) RW 22 length 6000 ft width 150 ft
---- / hdg 224

(F) RW 28 length 10502 ft width 150 ft
ILS 109.70 / hdg 285

(G) RW 33L length 9501 ft width 150 ft
ILS 111.70 / hdg 335

(H) RW 33R length 5000 ft width 100 ft
ILS 111.95 / hdg 335

Location; KBWI
Day. 20 / Time. 21.13 Zulu
* Altimeter: 30.32
* Temperature: -01° c. -30.2°f.
* Wind from: 040° Speed 04 kn.
Dewpoint: -01° c.
Visibility: 1 m.
Clouds: Overcast 500 ft.
Conditions: Mist.

KBWI 202113Z 04004KT 1 1/4SM R10/5000VP6000FT -FZRA BR OVC005 M01/M01 A3032 RMK AO2 P0001 I1003 T10061011 $


Wind From 040°
Speed 04 kn.

 
 
jpsmedia.com for Web Design worldairports.se 2019   terms of use